Regional Weather Roundup
Issued by NWS

Home | Current Version | Previous Version | Graphics & Text | Print | Product List | Glossary Off
Versions: 1 2 3 4 5 6 7 8 9 10 11 12 13 14 15 16 17 18 19 20 21 22 23 24 25 26 27 28 29 30 31 32 33 34 35 36 37 38 39 40 41 42 43 44 45 46 47 48 49 50

000
ASUS43 KTOP 020508
RWRKS

WEATHER ROUNDUP FOR KANSAS
NATIONAL WEATHER SERVICE GOODLAND KS
1100 PM CST SUN MAR 01 2015

NOTE:  "FAIR" INDICATES FEW OR NO CLOUDS BELOW 12,000 FEET WITH NO
SIGNIFICANT WEATHER AND/OR OBSTRUCTIONS TO VISIBILITY.

KSZ001>006-013>018-027>032-041>047-020600-
NORTHWEST KANSAS

CITY           SKY/WX    TMP DP  RH WIND       PRES   REMARKS
GOODLAND       CLOUDY    30  20  66 S9        30.35R
HAYS           MOCLDY    25  14  63 W5        30.44R
HILL CITY      CLOUDY    30  21  69 CALM      30.42R
RUSSELL        MOCLDY    26  21  81 S7        30.43R
$$

KSZ061>065-074>080-084>089-020600-
SOUTHWEST KANSAS

CITY           SKY/WX    TMP DP  RH WIND       PRES   REMARKS
DODGE CITY     PTCLDY    24  17  74 E3        30.42R
ELKHART          N/A     26  20  78 SE2         N/A
GARDEN CITY    PTCLDY    22  18  85 NE5       30.39R
GREAT BEND     PTCLDY    21  16  79 CALM      30.45R
LIBERAL        CLOUDY    28  19  69 CALM      30.42R
PRATT          MOCLDY    27  21  80 N3        30.45R
$$

KSZ066>073-081>083-090>101-020600-
SOUTHEAST KANSAS

CITY           SKY/WX    TMP DP  RH WIND       PRES   REMARKS
CHANUTE        PTCLDY    19  17  92 CALM      30.49R
COFFEYVILLE    PTCLDY    25  20  81 N3        30.50R
HUTCHINSON     PTCLDY    20  16  84 N3        30.46R
MEDICINE LODGE   N/A     25  21  85 CALM      30.46R
NEWTON         PTCLDY    25  16  68 CALM      30.46S
PARSONS        PTCLDY    23  19  85 NE3       30.50R
WICHITA INTL   PTCLDY    18  15  88 SW3       30.47R
WICHITA JABRA  PTCLDY    20  17  88 CALM      30.46R
WICHITA MCCONL MOCLDY    25  20  81 CALM      30.46S
WINFIELD       PTCLDY    19  16  88 CALM      30.49R
$$

KSZ007>012-019>026-033>040-048>060-102>105-020600-
NORTHEAST KANSAS

CITY           SKY/WX    TMP DP  RH WIND       PRES   REMARKS
CONCORDIA      MOCLDY    29  22  75 SW6       30.44R
EMPORIA        PTCLDY    20  17  88 S5        30.46S
LAWRENCE       CLEAR     20  17  88 SE3       30.49R
MANHATTAN      PTCLDY    22  19  89 CALM      30.48R
MARYSVILLE     MOCLDY    28  23  80 S3        30.45R
OLATHE IND     PTCLDY    22  18  85 CALM      30.49R
OLATHE EXE     PTCLDY    23  20  88 CALM      30.47R
SALINA         CLEAR     20  17  88 S6        30.47R
TOPEKA BILLARD CLEAR     24  19  81 CALM      30.49R
TOPEKA FORBES  CLEAR     22  18  85 CALM      30.47R
$$



USA.gov is the U.S. government's official web portal to all federal, state and local government web resources and services.